Morgantown, WV

5:21 PM EST on February 26, 2017 (GMT -0500)
Morgantown Municipal-Hart

Weather History for KMGW - February, 2013

Change the Weather History Date:

Sunday, February 3, 2013

  Actual Average Record
Temperature  
Mean Temperature 24 °F 32 °F  
Max Temperature 28 °F 40 °F 63 °F (2016)
Min Temperature 20 °F 24 °F 0 °F (1951)
Degree Days  
Heating Degree Days 41 33  
Month to date heating degree days 136 99  
Since 1 July heating degree days 2920 3126  
Cooling Degree Days 0 0  
Month to date cooling degree days 0 0  
Year to date cooling degree days 0 0  
Moisture  
Dew Point 22 °F    
Average Humidity 84    
Maximum Humidity 100    
Minimum Humidity 67    
Precipitation  
Precipitation T in 0.09 in 0.81 in (2004)
Month to date precipitation T 0.27  
Year to date precipitation 3.14 3.08  
Sea Level Pressure  
Sea Level Pressure 29.89 in    
Wind  
Wind Speed 6 mph (SW)    
Max Wind Speed 14 mph    
Max Gust Speed 22 mph    
Visibility 4 miles    
Events Fog , Snow    
T = Trace of Precipitation, MM = Missing Value Source: NWS Daily Summary

Daily Weather History Graph

Daily Weather History Graph

Search for Another Location

Airport or City:

Trip Planner

Search our weather history database for the weather conditions in past years. The results will help you decide how hot, cold, wet, or windy it might be!

Date:

Astronomy

Feb. 03, 2013 Rise Set
Actual Time 7:25 AM EST 5:42 PM EST
Civil Twilight 6:56 AM EST 6:10 PM EST
Nautical Twilight 6:24 AM EST 6:42 PM EST
Astronomical Twilight 5:53 AM EST 7:14 PM EST
Moon 12:51 AM EST (2/3) 11:18 AM EST (2/3)
Length of Visible Light 11h 13m
Length of Day
10h 17m
Waning Gibbous, 49% of the Moon is Illuminated
Feb 3
Waning Gibbous
Feb 10
New
Feb 17
First Quarter
Feb 25
Full
Mar 4
Last Quarter

Hourly Weather History & Observations

Time (EST) Temp. Windchill Dew Point Humidity Pressure Visibility Wind Dir Wind Speed Gust Speed Precip Events Conditions
12:03 AM 24.8 °F 17.9 °F 23.0 °F 93% 29.95 in 4.0 mi SSW 5.8 mph - N/A   Overcast
12:31 AM 26.6 °F 22.6 °F 23.0 °F 86% 29.95 in 4.0 mi SW 3.5 mph - N/A   Overcast
12:51 AM 26.6 °F 22.6 °F 24.8 °F 93% 29.94 in 6.0 mi SW 3.5 mph - N/A   Overcast
12:53 AM 26.1 °F 21.9 °F 24.1 °F 92% 29.99 in 6.0 mi SW 3.5 mph - N/A   Overcast
1:53 AM 26.1 °F - 24.1 °F 92% 29.97 in 5.0 mi Calm Calm - N/A   Overcast
2:07 AM 26.6 °F 22.6 °F 24.8 °F 93% 29.92 in 6.0 mi SW 3.5 mph - N/A   Overcast
2:33 AM 24.8 °F 20.5 °F 24.8 °F 100% 29.92 in 8.0 mi SW 3.5 mph - N/A   Overcast
2:53 AM 25.0 °F - 24.1 °F 96% 29.96 in 8.0 mi Calm Calm - N/A   Overcast
3:04 AM 24.8 °F - 24.8 °F 100% 29.91 in 9.0 mi Calm Calm - N/A   Overcast
3:53 AM 25.0 °F - 24.1 °F 96% 29.94 in 4.0 mi Calm Calm - N/A   Overcast
4:53 AM 25.0 °F 20.7 °F 23.0 °F 92% 29.92 in 4.0 mi SW 3.5 mph - N/A   Overcast
5:26 AM 24.8 °F 19.1 °F 23.0 °F 93% 29.87 in 5.0 mi SW 4.6 mph - N/A   Overcast
5:53 AM 25.0 °F 20.7 °F 23.0 °F 92% 29.92 in 6.0 mi Variable 3.5 mph - N/A   Overcast
6:53 AM 25.0 °F - 21.9 °F 88% 29.92 in 10.0 mi Calm Calm - N/A   Overcast
7:03 AM 24.8 °F 20.5 °F 21.2 °F 86% 29.87 in 10.0 mi SSW 3.5 mph - N/A   Overcast
7:26 AM 24.8 °F - 21.2 °F 86% 29.87 in 6.0 mi Calm Calm - 0.00 in Snow Light Snow
7:34 AM 24.8 °F 20.5 °F 21.2 °F 86% 29.87 in 5.0 mi SW 3.5 mph - 0.00 in Snow Light Snow
7:49 AM 24.8 °F 20.5 °F 21.2 °F 86% 29.87 in 3.0 mi SSW 3.5 mph - 0.00 in Snow Light Snow
7:53 AM 25.0 °F 20.7 °F 21.9 °F 88% 29.92 in 4.0 mi SSW 3.5 mph - 0.00 in Snow Light Snow
8:07 AM 24.8 °F - 21.2 °F 86% 29.87 in 2.0 mi Calm Calm - 0.00 in Snow Light Snow
8:18 AM 24.8 °F - 21.2 °F 86% 29.87 in 1.8 mi Calm Calm - 0.00 in Snow Light Snow
8:40 AM 24.8 °F 20.5 °F 23.0 °F 93% 29.87 in 0.8 mi SSW 3.5 mph - 0.00 in Snow Light Snow
8:53 AM 24.1 °F - 21.9 °F 91% 29.92 in 0.8 mi Calm Calm - 0.00 in Snow Light Snow
9:35 AM 24.8 °F 19.1 °F 23.0 °F 93% 29.87 in 0.8 mi SSW 4.6 mph - 0.00 in Snow Snow
9:43 AM 24.8 °F 17.9 °F 23.0 °F 93% 29.86 in 0.5 mi Variable 5.8 mph - 0.00 in Fog , Snow Snow
9:53 AM 25.0 °F 19.3 °F 21.9 °F 88% 29.91 in 0.5 mi WSW 4.6 mph - 0.00 in Fog , Snow Light Snow
10:06 AM 24.8 °F 19.1 °F 21.2 °F 86% 29.86 in 1.0 mi SW 4.6 mph - 0.00 in Snow Light Snow
10:20 AM 24.8 °F 20.5 °F 23.0 °F 93% 29.86 in 2.0 mi South 3.5 mph - 0.00 in   Overcast
10:30 AM 24.8 °F - 24.8 °F 100% 29.85 in 1.5 mi Calm Calm - 0.00 in Snow Light Snow
10:42 AM 26.6 °F 20.0 °F 23.0 °F 86% 29.85 in 1.5 mi South 5.8 mph - 0.00 in Snow Light Snow
10:53 AM 26.1 °F 19.4 °F 23.0 °F 88% 29.89 in 1.5 mi South 5.8 mph - 0.00 in Snow Light Snow
11:00 AM 26.6 °F 21.2 °F 23.0 °F 86% 29.84 in 2.5 mi Variable 4.6 mph - 0.00 in Snow Light Snow
11:21 AM 26.6 °F 21.2 °F 23.0 °F 86% 29.83 in 1.2 mi Variable 4.6 mph - 0.00 in Snow Light Snow
11:35 AM 26.6 °F 19.1 °F 24.8 °F 93% 29.83 in 0.8 mi SSW 6.9 mph - 0.00 in Snow Light Snow
11:53 AM 26.1 °F 20.5 °F 24.1 °F 92% 29.87 in 0.8 mi SSW 4.6 mph - 0.00 in Snow Light Snow
12:02 PM 26.6 °F 21.2 °F 24.8 °F 93% 29.82 in 1.8 mi SSW 4.6 mph - 0.00 in Snow Light Snow
12:12 PM 26.6 °F 21.2 °F 24.8 °F 93% 29.82 in 1.8 mi SSW 4.6 mph - 0.00 in Snow Light Snow
12:53 PM 27.0 °F 21.6 °F 24.1 °F 89% 29.86 in 1.0 mi SW 4.6 mph - 0.00 in Snow Light Snow
1:02 PM 26.6 °F - 24.8 °F 93% 29.81 in 1.0 mi Calm Calm - 0.00 in Snow Light Snow
1:06 PM 26.6 °F 20.0 °F 24.8 °F 93% 29.81 in 0.8 mi WSW 5.8 mph - 0.00 in Snow Light Snow
1:15 PM 28.4 °F 24.6 °F 24.8 °F 86% 29.80 in 1.0 mi WSW 3.5 mph - 0.00 in Snow Light Snow
1:30 PM 26.6 °F 22.6 °F 24.8 °F 93% 29.80 in 1.2 mi Variable 3.5 mph - 0.00 in Snow Light Snow
1:41 PM 28.4 °F 21.2 °F 24.8 °F 86% 29.80 in 0.8 mi WSW 6.9 mph - 0.00 in Snow Light Snow
1:53 PM 27.0 °F 19.5 °F 24.1 °F 89% 29.84 in 0.8 mi SW 6.9 mph - 0.00 in Snow Light Snow
2:04 PM 26.6 °F 21.2 °F 24.8 °F 93% 29.80 in 1.2 mi SW 4.6 mph - 0.00 in Snow Light Snow
2:22 PM 26.6 °F 20.0 °F 24.8 °F 93% 29.80 in 0.8 mi West 5.8 mph - 0.00 in Snow Light Snow
2:36 PM 28.4 °F 23.3 °F 24.8 °F 86% 29.80 in 2.0 mi West 4.6 mph - 0.00 in Snow Light Snow
2:44 PM 28.4 °F 19.7 °F 24.8 °F 86% 29.80 in 5.0 mi WSW 9.2 mph - 0.00 in Snow Light Snow
2:53 PM 28.0 °F 19.3 °F 24.1 °F 85% 29.85 in 2.0 mi WSW 9.2 mph - 0.00 in Snow Light Snow
3:14 PM 28.4 °F 19.7 °F 24.8 °F 86% 29.81 in 0.8 mi SW 9.2 mph - 0.00 in Snow Light Snow
3:29 PM 26.6 °F 19.1 °F 24.8 °F 93% 29.82 in 1.2 mi West 6.9 mph - 0.00 in Snow Light Snow
3:37 PM 26.6 °F 20.0 °F 24.8 °F 93% 29.82 in 1.8 mi WNW 5.8 mph - 0.00 in Snow Light Snow
3:44 PM 26.6 °F 18.2 °F 23.0 °F 86% 29.82 in 3.0 mi West 8.1 mph - 0.00 in Snow Light Snow
3:48 PM 26.6 °F 20.0 °F 21.2 °F 80% 29.83 in 1.8 mi Variable 5.8 mph - 0.00 in Snow Light Snow
3:53 PM 27.0 °F 16.1 °F 21.9 °F 81% 29.87 in 3.0 mi West 12.7 mph - 0.00 in Snow Light Snow
4:16 PM 26.6 °F 20.0 °F 21.2 °F 80% 29.83 in 3.0 mi West 5.8 mph - 0.00 in Snow Light Snow
5:44 PM 24.8 °F 16.1 °F 21.2 °F 86% 29.88 in 0.8 mi WNW 8.1 mph - 0.00 in Snow Light Snow
5:53 PM 24.1 °F 13.7 °F 21.0 °F 88% 29.93 in 1.2 mi West 10.4 mph - 0.00 in Snow Light Snow
6:11 PM 23.0 °F 13.9 °F 19.4 °F 86% 29.89 in 2.0 mi West 8.1 mph - 0.00 in Snow Light Snow
6:24 PM 23.0 °F 14.7 °F 17.6 °F 80% 29.90 in 4.0 mi West 6.9 mph - 0.00 in Snow Light Snow
6:48 PM 23.0 °F - 19.4 °F 86% 29.92 in 2.5 mi Calm Calm - 0.00 in Snow Light Snow
6:53 PM 23.0 °F 12.4 °F 18.0 °F 81% 29.97 in 3.0 mi WSW 10.4 mph - 0.00 in Snow Light Snow
7:18 PM 21.2 °F 13.6 °F 15.8 °F 80% 29.94 in 10.0 mi Variable 5.8 mph - 0.00 in   Overcast
7:53 PM 21.9 °F 15.7 °F 15.1 °F 75% 30.01 in 9.0 mi Variable 4.6 mph 19.6 mph 0.00 in   Overcast
8:26 PM 21.2 °F 12.6 °F 15.8 °F 80% 29.97 in 2.5 mi Variable 6.9 mph - 0.00 in Snow Light Snow
8:45 PM 21.2 °F 10.9 °F 17.6 °F 86% 29.98 in 5.0 mi WSW 9.2 mph - 0.00 in   Overcast
8:53 PM 21.0 °F 13.4 °F 17.1 °F 85% 30.03 in 6.0 mi SW 5.8 mph - 0.00 in   Overcast
9:19 PM 21.2 °F 9.5 °F 12.2 °F 68% 30.00 in 10.0 mi WSW 11.5 mph 21.9 mph N/A   Overcast
9:53 PM 19.9 °F 11.1 °F 12.0 °F 71% 30.06 in 10.0 mi Variable 6.9 mph - N/A   Overcast
10:33 PM 19.4 °F 11.5 °F 10.4 °F 68% 30.02 in 10.0 mi Variable 5.8 mph - N/A   Overcast
10:53 PM 19.9 °F 10.1 °F 10.9 °F 68% 30.08 in 10.0 mi WSW 8.1 mph - N/A   Overcast
11:53 PM 19.9 °F 11.1 °F 12.0 °F 71% 30.09 in 10.0 mi Variable 6.9 mph - N/A   Overcast